Time,TemperatureF,DewpointF,PressureIn,WindDirection,WindDirectionDegrees,WindSpeedMPH,WindSpeedGustMPH,Humidity,HourlyPrecipIn,Conditions,Clouds,dailyrainin,SoftwareType,DateUTC
2013-07-28 00:01:00,73.7,71.6,29.91,SSW,200,0.0,1.0,93,0.00,,-RA,0.00,VWS V14.01,2013-07-28 04:01:00,
2013-07-28 00:02:00,73.7,71.6,29.91,SSW,200,1.0,1.0,93,0.00,,-RA,0.00,VWS V14.01,2013-07-28 04:02:00,
2013-07-28 00:07:00,73.6,71.8,29.91,SSW,200,0.0,1.0,94,0.00,,-RA,0.00,VWS V14.01,2013-07-28 04:07:00,
2013-07-28 00:12:00,73.5,71.7,29.91,SSW,200,0.0,1.0,94,0.00,,-RA,0.00,VWS V14.01,2013-07-28 04:12:00,
2013-07-28 00:17:00,73.4,71.6,29.91,SSW,200,0.0,1.0,94,0.00,,-RA,0.00,VWS V14.01,2013-07-28 04:17:00,
2013-07-28 00:22:00,73.4,71.6,29.91,SSW,200,0.0,1.0,94,0.00,,-RA,0.00,VWS V14.01,2013-07-28 04:22:00,
2013-07-28 00:27:00,73.2,71.4,29.91,SSW,200,0.0,1.0,94,0.00,,-RA,0.00,VWS V14.01,2013-07-28 04:27:00,
2013-07-28 00:32:00,73.0,71.2,29.91,SSW,200,0.0,1.0,94,0.00,,-RA,0.00,VWS V14.01,2013-07-28 04:32:00,
2013-07-28 00:37:00,72.8,71.0,29.91,SSW,200,0.0,1.0,94,0.00,,-RA,0.00,VWS V14.01,2013-07-28 04:37:00,
2013-07-28 00:42:00,72.7,71.2,29.91,SSW,200,0.0,1.0,95,0.00,,-RA,0.00,VWS V14.01,2013-07-28 04:42:00,
2013-07-28 00:47:00,72.6,71.1,29.91,SSW,200,0.0,1.0,95,0.00,,-RA,0.00,VWS V14.01,2013-07-28 04:47:00,
2013-07-28 00:52:00,72.4,70.9,29.91,SSW,200,0.0,1.0,95,0.00,,-RA,0.00,VWS V14.01,2013-07-28 04:52:00,
2013-07-28 00:57:00,72.3,70.8,29.91,SSW,200,0.0,1.0,95,0.00,,-RA,0.00,VWS V14.01,2013-07-28 04:57:00,
2013-07-28 01:02:00,72.2,70.7,29.91,SSW,200,0.0,0.0,95,0.00,,-RA,0.00,VWS V14.01,2013-07-28 05:02:00,
2013-07-28 01:07:00,72.1,70.6,29.91,SSW,200,0.0,0.0,95,0.00,,-RA,0.00,VWS V14.01,2013-07-28 05:07:00,
2013-07-28 01:12:00,72.0,70.5,29.91,SSW,200,0.0,0.0,95,0.00,,-RA,0.00,VWS V14.01,2013-07-28 05:12:00,
2013-07-28 01:17:00,71.9,70.4,29.91,SSW,200,0.0,0.0,95,0.00,,-RA,0.00,VWS V14.01,2013-07-28 05:17:00,
2013-07-28 01:22:00,71.8,70.6,29.91,SSW,200,0.0,1.0,96,0.00,,-RA,0.00,VWS V14.01,2013-07-28 05:22:00,
2013-07-28 01:27:00,71.8,70.6,29.91,SSW,200,0.0,1.0,96,0.00,,-RA,0.00,VWS V14.01,2013-07-28 05:27:00,
2013-07-28 01:32:00,71.7,70.5,29.91,SSW,200,0.0,1.0,96,0.00,,-RA,0.00,VWS V14.01,2013-07-28 05:32:00,
2013-07-28 01:37:00,71.7,70.5,29.91,SSW,200,0.0,2.0,96,0.00,,-RA,0.00,VWS V14.01,2013-07-28 05:37:00,
2013-07-28 01:42:00,71.7,70.5,29.91,SSW,200,0.0,2.0,96,0.00,,-RA,0.00,VWS V14.01,2013-07-28 05:42:00,
2013-07-28 01:47:00,71.7,70.5,29.91,SSW,200,0.0,2.0,96,0.00,,-RA,0.00,VWS V14.01,2013-07-28 05:47:00,
2013-07-28 01:52:00,71.6,70.4,29.91,SSW,200,0.0,2.0,96,0.00,,-RA,0.00,VWS V14.01,2013-07-28 05:52:00,
2013-07-28 01:57:00,71.6,70.4,29.91,SSW,200,0.0,2.0,96,0.00,,-RA,0.00,VWS V14.01,2013-07-28 05:57:00,
2013-07-28 02:02:00,71.6,70.4,29.90,SSW,200,0.0,0.0,96,0.00,,-RA,0.00,VWS V14.01,2013-07-28 06:02:00,
2013-07-28 02:07:00,71.6,70.7,29.90,SSW,200,0.0,0.0,97,0.00,,-RA,0.00,VWS V14.01,2013-07-28 06:07:00,
2013-07-28 02:12:00,71.6,70.7,29.91,SSW,200,1.0,1.0,97,0.00,,-RA,0.00,VWS V14.01,2013-07-28 06:12:00,
2013-07-28 02:17:00,71.6,70.7,29.90,SSW,200,0.0,2.0,97,0.00,,-RA,0.00,VWS V14.01,2013-07-28 06:17:00,
2013-07-28 02:22:00,71.6,70.7,29.90,SSW,200,0.0,2.0,97,0.00,,-RA,0.00,VWS V14.01,2013-07-28 06:22:00,
2013-07-28 02:27:00,71.5,70.6,29.90,SSW,200,0.0,2.0,97,0.00,,-RA,0.00,VWS V14.01,2013-07-28 06:27:00,
2013-07-28 02:32:00,71.5,70.6,29.90,SSW,200,0.0,2.0,97,0.00,,-RA,0.00,VWS V14.01,2013-07-28 06:32:00,
2013-07-28 02:37:00,71.5,70.6,29.90,SSW,200,0.0,2.0,97,0.00,,-RA,0.00,VWS V14.01,2013-07-28 06:37:00,
2013-07-28 02:42:00,71.4,70.5,29.90,SSW,200,0.0,2.0,97,0.00,,-RA,0.00,VWS V14.01,2013-07-28 06:42:00,
2013-07-28 02:47:00,71.4,70.5,29.90,SSW,200,0.0,2.0,97,0.00,,-RA,0.00,VWS V14.01,2013-07-28 06:47:00,
2013-07-28 02:52:00,71.3,70.4,29.91,SSW,200,0.0,2.0,97,0.00,,-RA,0.00,VWS V14.01,2013-07-28 06:52:00,
2013-07-28 02:57:00,71.3,70.4,29.90,SSW,200,0.0,2.0,97,0.00,,-RA,0.00,VWS V14.01,2013-07-28 06:57:00,
2013-07-28 03:02:00,71.3,70.4,29.90,SSW,200,0.0,1.0,97,0.00,,-RA,0.00,VWS V14.01,2013-07-28 07:02:00,
2013-07-28 03:07:00,71.3,70.4,29.90,SSW,200,0.0,1.0,97,0.00,,-RA,0.00,VWS V14.01,2013-07-28 07:07:00,
2013-07-28 03:12:00,71.3,70.4,29.90,SSW,200,0.0,1.0,97,0.00,,-RA,0.00,VWS V14.01,2013-07-28 07:12:00,
2013-07-28 03:17:00,71.3,70.7,29.91,SSW,200,0.0,1.0,98,0.00,,-RA,0.00,VWS V14.01,2013-07-28 07:17:00,
2013-07-28 03:22:00,71.3,70.7,29.91,SSW,200,0.0,2.0,98,0.00,,-RA,0.00,VWS V14.01,2013-07-28 07:22:00,
2013-07-28 03:27:00,71.3,70.7,29.91,SSW,200,0.0,2.0,98,0.00,,-RA,0.00,VWS V14.01,2013-07-28 07:27:00,
2013-07-28 03:32:00,71.3,70.7,29.91,SSW,200,0.0,2.0,98,0.00,,-RA,0.00,VWS V14.01,2013-07-28 07:32:00,
2013-07-28 03:37:00,71.3,70.7,29.91,SSW,200,0.0,2.0,98,0.00,,-RA,0.00,VWS V14.01,2013-07-28 07:37:00,
2013-07-28 03:42:00,71.3,70.7,29.90,SSW,200,0.0,2.0,98,0.00,,-RA,0.00,VWS V14.01,2013-07-28 07:42:00,
2013-07-28 03:47:00,71.2,70.6,29.90,SSW,200,0.0,2.0,98,0.00,,-RA,0.00,VWS V14.01,2013-07-28 07:47:00,
2013-07-28 03:52:00,71.1,70.5,29.90,SSW,200,0.0,2.0,98,0.00,,-RA,0.00,VWS V14.01,2013-07-28 07:52:00,
2013-07-28 03:57:00,71.1,70.5,29.90,SSW,200,0.0,2.0,98,0.00,,-RA,0.00,VWS V14.01,2013-07-28 07:57:00,
2013-07-28 04:02:00,71.0,70.4,29.90,SSW,200,0.0,1.0,98,0.00,,-RA,0.00,VWS V14.01,2013-07-28 08:02:00,
2013-07-28 04:07:00,71.0,70.4,29.90,SSW,200,0.0,1.0,98,0.00,,-RA,0.00,VWS V14.01,2013-07-28 08:07:00,
2013-07-28 04:12:00,71.0,70.4,29.91,SSW,200,0.0,1.0,98,0.00,,-RA,0.00,VWS V14.01,2013-07-28 08:12:00,
2013-07-28 04:17:00,71.0,70.4,29.90,SSW,200,0.0,1.0,98,0.00,,-RA,0.00,VWS V14.01,2013-07-28 08:17:00,
2013-07-28 04:22:00,71.0,70.4,29.90,SSW,200,0.0,1.0,98,0.00,,-RA,0.00,VWS V14.01,2013-07-28 08:22:00,
2013-07-28 04:27:00,70.9,70.3,29.90,SSW,200,0.0,1.0,98,0.00,,-RA,0.00,VWS V14.01,2013-07-28 08:27:00,
2013-07-28 04:32:00,70.8,70.2,29.90,SSW,200,0.0,1.0,98,0.00,,-RA,0.00,VWS V14.01,2013-07-28 08:32:00,
2013-07-28 04:37:00,70.8,70.2,29.91,SSW,200,1.0,1.0,98,0.00,,-RA,0.00,VWS V14.01,2013-07-28 08:37:00,
2013-07-28 04:42:00,70.8,70.2,29.91,SSW,200,0.0,2.0,98,0.00,,-RA,0.00,VWS V14.01,2013-07-28 08:42:00,
2013-07-28 04:47:00,70.7,70.1,29.91,SSW,200,0.0,2.0,98,0.00,,-RA,0.00,VWS V14.01,2013-07-28 08:47:00,
2013-07-28 04:52:00,70.7,70.1,29.91,SSW,200,0.0,2.0,98,0.00,,-RA,0.00,VWS V14.01,2013-07-28 08:52:00,
2013-07-28 04:57:00,70.6,70.0,29.91,SSW,200,0.0,2.0,98,0.00,,-RA,0.00,VWS V14.01,2013-07-28 08:57:00,
2013-07-28 05:02:00,70.7,70.4,29.91,SSW,200,0.0,1.0,99,0.00,,-RA,0.00,VWS V14.01,2013-07-28 09:02:00,
2013-07-28 05:07:00,70.8,70.5,29.91,SSW,200,0.0,2.0,99,0.00,,-RA,0.00,VWS V14.01,2013-07-28 09:07:00,
2013-07-28 05:12:00,70.8,70.5,29.91,SSW,200,1.0,3.0,99,0.00,,-RA,0.00,VWS V14.01,2013-07-28 09:12:00,
2013-07-28 05:17:00,70.8,70.5,29.92,SSW,200,2.0,4.0,99,0.00,,-RA,0.00,VWS V14.01,2013-07-28 09:17:00,
2013-07-28 05:22:00,70.8,70.5,29.92,South,185,3.0,4.0,99,0.00,,-RA,0.00,VWS V14.01,2013-07-28 09:22:00,
2013-07-28 05:27:00,70.8,70.5,29.92,South,185,0.0,4.0,99,0.00,,-RA,0.00,VWS V14.01,2013-07-28 09:27:00,
2013-07-28 05:32:00,70.8,70.5,29.92,South,185,0.0,4.0,99,0.00,,-RA,0.00,VWS V14.01,2013-07-28 09:32:00,
2013-07-28 05:37:00,70.7,70.4,29.92,South,185,0.0,4.0,99,0.00,,-RA,0.00,VWS V14.01,2013-07-28 09:37:00,
2013-07-28 05:42:00,70.6,70.3,29.92,South,185,1.0,4.0,99,0.00,,-RA,0.00,VWS V14.01,2013-07-28 09:42:00,
2013-07-28 05:47:00,70.6,70.3,29.92,South,185,0.0,4.0,99,0.00,,-RA,0.00,VWS V14.01,2013-07-28 09:47:00,
2013-07-28 05:52:00,70.6,70.3,29.92,South,185,0.0,4.0,99,0.00,,-RA,0.00,VWS V14.01,2013-07-28 09:52:00,
2013-07-28 05:57:00,70.6,70.3,29.93,South,185,0.0,4.0,99,0.00,,-RA,0.00,VWS V14.01,2013-07-28 09:57:00,
2013-07-28 06:02:00,70.7,70.4,29.93,South,185,0.0,1.0,99,0.00,,-RA,0.00,VWS V14.01,2013-07-28 10:02:00,
2013-07-28 06:07:00,70.7,70.4,29.93,South,185,0.0,1.0,99,0.00,,-RA,0.00,VWS V14.01,2013-07-28 10:07:00,
2013-07-28 06:12:00,70.7,70.4,29.93,South,185,0.0,1.0,99,0.00,,-RA,0.00,VWS V14.01,2013-07-28 10:12:00,
2013-07-28 06:17:00,70.6,70.3,29.93,South,185,0.0,1.0,99,0.00,,-RA,0.00,VWS V14.01,2013-07-28 10:17:00,
2013-07-28 06:22:00,70.6,70.3,29.93,South,185,0.0,1.0,99,0.00,,-RA,0.00,VWS V14.01,2013-07-28 10:22:00,
2013-07-28 06:27:00,70.6,70.3,29.94,South,186,0.0,3.0,99,0.00,,-RA,0.00,VWS V14.01,2013-07-28 10:27:00,
2013-07-28 06:32:00,70.7,70.4,29.94,South,186,0.0,3.0,99,0.00,,-RA,0.00,VWS V14.01,2013-07-28 10:32:00,
2013-07-28 06:37:00,70.7,70.4,29.94,South,186,0.0,5.0,99,0.00,,-RA,0.00,VWS V14.01,2013-07-28 10:37:00,
2013-07-28 06:42:00,70.7,70.4,29.94,South,186,2.0,5.0,99,0.00,,-RA,0.00,VWS V14.01,2013-07-28 10:42:00,
2013-07-28 06:47:00,70.6,70.3,29.94,South,186,0.0,5.0,99,0.00,,-RA,0.00,VWS V14.01,2013-07-28 10:47:00,
2013-07-28 06:52:00,70.6,70.3,29.94,SW,221,0.0,5.0,99,0.00,,-RA,0.00,VWS V14.01,2013-07-28 10:52:00,
2013-07-28 06:57:00,70.7,70.4,29.94,South,190,3.0,5.0,99,0.00,,-RA,0.00,VWS V14.01,2013-07-28 10:57:00,
2013-07-28 07:02:00,70.8,70.5,29.94,South,190,0.0,1.0,99,0.00,,-RA,0.00,VWS V14.01,2013-07-28 11:02:00,
2013-07-28 07:07:00,70.7,70.4,29.94,South,190,0.0,1.0,99,0.00,,-RA,0.00,VWS V14.01,2013-07-28 11:07:00,
2013-07-28 07:12:00,70.7,70.4,29.94,South,190,0.0,1.0,99,0.00,,-RA,0.00,VWS V14.01,2013-07-28 11:12:00,
2013-07-28 07:17:00,70.6,70.3,29.94,South,190,0.0,1.0,99,0.00,,-RA,0.00,VWS V14.01,2013-07-28 11:17:00,
2013-07-28 07:22:00,70.6,70.3,29.94,South,190,0.0,1.0,99,0.00,,-RA,0.00,VWS V14.01,2013-07-28 11:22:00,
2013-07-28 07:27:00,70.6,70.3,29.94,South,173,0.0,1.0,99,0.00,,-RA,0.00,VWS V14.01,2013-07-28 11:27:00,
2013-07-28 07:32:00,70.6,70.3,29.94,WSW,244,0.0,2.0,99,0.00,,-RA,0.00,VWS V14.01,2013-07-28 11:32:00,
2013-07-28 07:37:00,70.7,70.4,29.95,WSW,244,0.0,3.0,99,0.00,,-RA,0.00,VWS V14.01,2013-07-28 11:37:00,
2013-07-28 07:42:00,70.9,70.6,29.95,SW,219,1.0,3.0,99,0.00,,-RA,0.00,VWS V14.01,2013-07-28 11:42:00,
2013-07-28 07:47:00,71.1,70.8,29.95,SW,225,0.0,3.0,99,0.00,,-RA,0.00,VWS V14.01,2013-07-28 11:47:00,
2013-07-28 07:52:00,71.3,71.0,29.95,SW,225,0.0,3.0,99,0.00,,-RA,0.00,VWS V14.01,2013-07-28 11:52:00,
2013-07-28 07:57:00,71.3,71.0,29.95,SW,225,0.0,3.0,99,0.00,,-RA,0.00,VWS V14.01,2013-07-28 11:57:00,
2013-07-28 08:02:00,71.5,71.2,29.95,SW,225,1.0,4.0,99,0.00,,-RA,0.00,VWS V14.01,2013-07-28 12:02:00,
2013-07-28 08:07:00,71.7,71.4,29.95,SW,225,0.0,4.0,99,0.00,,-RA,0.00,VWS V14.01,2013-07-28 12:07:00,
2013-07-28 08:12:00,72.0,71.7,29.95,West,268,0.0,4.0,99,0.00,,-RA,0.00,VWS V14.01,2013-07-28 12:12:00,
2013-07-28 08:17:00,72.3,72.0,29.95,West,268,0.0,4.0,99,0.00,,-RA,0.00,VWS V14.01,2013-07-28 12:17:00,
2013-07-28 08:22:00,72.6,72.3,29.96,West,267,1.0,4.0,99,0.00,,-RA,0.00,VWS V14.01,2013-07-28 12:22:00,
2013-07-28 08:27:00,73.0,72.7,29.96,West,267,0.0,4.0,99,0.00,,-RA,0.00,VWS V14.01,2013-07-28 12:27:00,
2013-07-28 08:32:00,73.4,73.1,29.96,WSW,251,0.0,4.0,99,0.00,,-RA,0.00,VWS V14.01,2013-07-28 12:32:00,
2013-07-28 08:37:00,73.7,73.1,29.96,WSW,242,2.0,4.0,98,0.00,,-RA,0.00,VWS V14.01,2013-07-28 12:37:00,
2013-07-28 08:42:00,74.1,73.5,29.96,SW,232,0.0,5.0,98,0.00,,-RA,0.00,VWS V14.01,2013-07-28 12:42:00,
2013-07-28 08:47:00,74.3,73.4,29.96,SW,223,1.0,7.0,97,0.00,,-RA,0.00,VWS V14.01,2013-07-28 12:47:00,
2013-07-28 08:52:00,74.7,73.5,29.96,WSW,245,3.0,7.0,96,0.00,,-RA,0.00,VWS V14.01,2013-07-28 12:52:00,
2013-07-28 08:57:00,75.0,73.8,29.96,SW,228,1.0,7.0,96,0.00,,-RA,0.00,VWS V14.01,2013-07-28 12:57:00,
2013-07-28 09:02:00,75.4,73.9,29.96,SW,225,0.0,5.0,95,0.00,,-RA,0.00,VWS V14.01,2013-07-28 13:02:00,
2013-07-28 09:07:00,75.7,73.5,29.96,WSW,241,2.0,5.0,93,0.00,,-RA,0.00,VWS V14.01,2013-07-28 13:07:00,
2013-07-28 09:12:00,76.1,73.9,29.96,SW,227,0.0,5.0,93,0.00,,-RA,0.00,VWS V14.01,2013-07-28 13:12:00,
2013-07-28 09:17:00,76.5,74.0,29.96,NW,307,0.0,5.0,92,0.00,,-RA,0.00,VWS V14.01,2013-07-28 13:17:00,
2013-07-28 09:22:00,76.8,73.7,29.96,WSW,254,0.0,5.0,90,0.00,,-RA,0.00,VWS V14.01,2013-07-28 13:22:00,
2013-07-28 09:27:00,77.2,74.0,29.96,SW,216,0.0,5.0,90,0.00,,-RA,0.00,VWS V14.01,2013-07-28 13:27:00,
2013-07-28 09:32:00,77.7,74.5,29.96,SW,216,0.0,5.0,90,0.00,,-RA,0.00,VWS V14.01,2013-07-28 13:32:00,
2013-07-28 09:37:00,77.8,74.3,29.96,SW,216,0.0,5.0,89,0.00,,-RA,0.00,VWS V14.01,2013-07-28 13:37:00,
2013-07-28 09:42:00,78.1,74.3,29.96,SW,221,0.0,5.0,88,0.00,,-RA,0.00,VWS V14.01,2013-07-28 13:42:00,
2013-07-28 09:47:00,78.0,73.8,29.96,SSW,211,0.0,5.0,87,0.00,,-RA,0.00,VWS V14.01,2013-07-28 13:47:00,
2013-07-28 09:52:00,78.7,74.5,29.96,SSW,211,0.0,5.0,87,0.00,,-RA,0.00,VWS V14.01,2013-07-28 13:52:00,
2013-07-28 09:57:00,79.0,74.8,29.96,SSW,211,0.0,5.0,87,0.00,,-RA,0.00,VWS V14.01,2013-07-28 13:57:00,
2013-07-28 10:02:00,78.9,74.0,29.95,WSW,238,0.0,6.0,85,0.00,,-RA,0.00,VWS V14.01,2013-07-28 14:02:00,
2013-07-28 10:07:00,79.0,73.8,29.95,SW,231,0.0,6.0,84,0.00,,-RA,0.00,VWS V14.01,2013-07-28 14:07:00,
2013-07-28 10:12:00,79.4,74.5,29.96,SW,231,0.0,6.0,85,0.00,,-RA,0.00,VWS V14.01,2013-07-28 14:12:00,
2013-07-28 10:17:00,79.8,74.2,29.96,WSW,258,0.0,6.0,83,0.00,,-RA,0.00,VWS V14.01,2013-07-28 14:17:00,
2013-07-28 10:22:00,80.1,74.1,29.96,SSW,198,4.0,6.0,82,0.00,,-RA,0.00,VWS V14.01,2013-07-28 14:22:00,
2013-07-28 10:27:00,80.0,73.7,29.96,West,281,4.0,6.0,81,0.00,,-RA,0.00,VWS V14.01,2013-07-28 14:27:00,
2013-07-28 10:32:00,80.2,73.5,29.96,WSW,255,0.0,6.0,80,0.00,,-RA,0.00,VWS V14.01,2013-07-28 14:32:00,
2013-07-28 10:37:00,80.3,73.2,29.96,WSW,255,0.0,7.0,79,0.00,,-RA,0.00,VWS V14.01,2013-07-28 14:37:00,
2013-07-28 10:42:00,80.6,73.1,29.96,WNW,284,3.0,9.0,78,0.00,,-RA,0.00,VWS V14.01,2013-07-28 14:42:00,
2013-07-28 10:47:00,81.1,73.2,29.96,SW,230,0.0,9.0,77,0.00,,-RA,0.00,VWS V14.01,2013-07-28 14:47:00,
2013-07-28 10:52:00,81.1,73.6,29.96,SW,219,2.0,10.0,78,0.00,,-RA,0.00,VWS V14.01,2013-07-28 14:52:00,
2013-07-28 10:57:00,81.3,73.4,29.96,SW,228,2.0,10.0,77,0.00,,-RA,0.00,VWS V14.01,2013-07-28 14:57:00,
2013-07-28 11:02:00,81.7,73.4,29.96,SW,234,3.0,6.0,76,0.00,,-RA,0.00,VWS V14.01,2013-07-28 15:02:00,
2013-07-28 11:07:00,81.7,73.8,29.96,West,276,4.0,7.0,77,0.00,,-RA,0.00,VWS V14.01,2013-07-28 15:07:00,
2013-07-28 11:12:00,81.8,73.5,29.96,WNW,284,2.0,7.0,76,0.00,,-RA,0.00,VWS V14.01,2013-07-28 15:12:00,
2013-07-28 11:17:00,81.6,72.9,29.96,West,275,3.0,8.0,75,0.00,,-RA,0.00,VWS V14.01,2013-07-28 15:17:00,
2013-07-28 11:22:00,81.9,72.4,29.96,WNW,302,5.0,9.0,73,0.00,,-RA,0.00,VWS V14.01,2013-07-28 15:22:00,
2013-07-28 11:27:00,82.2,72.7,29.96,WSW,248,1.0,10.0,73,0.00,,-RA,0.00,VWS V14.01,2013-07-28 15:27:00,
2013-07-28 11:32:00,82.7,74.0,29.96,West,261,3.0,10.0,75,0.00,,-RA,0.00,VWS V14.01,2013-07-28 15:32:00,
2013-07-28 11:37:00,83.1,74.0,29.96,SW,224,2.0,10.0,74,0.00,,-RA,0.00,VWS V14.01,2013-07-28 15:37:00,
2013-07-28 11:42:00,83.6,74.0,29.95,WSW,240,5.0,10.0,73,0.00,,-RA,0.00,VWS V14.01,2013-07-28 15:42:00,
2013-07-28 11:47:00,83.6,73.2,29.96,SW,229,1.0,10.0,71,0.00,,-RA,0.00,VWS V14.01,2013-07-28 15:47:00,
2013-07-28 11:52:00,83.4,73.4,29.96,WSW,254,0.0,10.0,72,0.00,,-RA,0.00,VWS V14.01,2013-07-28 15:52:00,
2013-07-28 11:57:00,83.1,72.7,29.96,SW,234,4.0,10.0,71,0.00,,-RA,0.00,VWS V14.01,2013-07-28 15:57:00,
2013-07-28 12:02:00,83.1,73.1,29.96,SW,234,2.0,10.0,72,0.00,,-RA,0.00,VWS V14.01,2013-07-28 16:02:00,
2013-07-28 12:07:00,83.3,73.3,29.96,West,267,3.0,10.0,72,0.00,,-RA,0.00,VWS V14.01,2013-07-28 16:07:00,
2013-07-28 12:12:00,83.7,72.9,29.96,West,281,2.0,10.0,70,0.00,,-RA,0.00,VWS V14.01,2013-07-28 16:12:00,
2013-07-28 12:17:00,84.0,72.3,29.96,NW,311,5.0,10.0,68,0.00,,-RA,0.00,VWS V14.01,2013-07-28 16:17:00,
2013-07-28 12:22:00,84.5,73.2,29.96,ENE,72,0.0,10.0,69,0.00,,-RA,0.00,VWS V14.01,2013-07-28 16:22:00,
2013-07-28 12:27:00,84.9,73.6,29.96,West,262,1.0,10.0,69,0.00,,-RA,0.00,VWS V14.01,2013-07-28 16:27:00,
2013-07-28 12:32:00,85.0,73.7,29.96,SW,231,0.0,10.0,69,0.00,,-RA,0.00,VWS V14.01,2013-07-28 16:32:00,
2013-07-28 12:37:00,85.1,72.9,29.96,SW,236,7.0,10.0,67,0.00,,-RA,0.00,VWS V14.01,2013-07-28 16:37:00,
2013-07-28 12:42:00,84.9,72.7,29.95,WSW,248,6.0,12.0,67,0.00,,-RA,0.00,VWS V14.01,2013-07-28 16:42:00,
2013-07-28 12:47:00,85.1,73.8,29.96,West,259,3.0,12.0,69,0.00,,-RA,0.00,VWS V14.01,2013-07-28 16:47:00,
2013-07-28 12:52:00,85.4,73.2,29.95,SW,233,0.0,12.0,67,0.00,,-RA,0.00,VWS V14.01,2013-07-28 16:52:00,
2013-07-28 12:57:00,85.8,72.2,29.95,SW,219,9.0,12.0,64,0.00,,-RA,0.00,VWS V14.01,2013-07-28 16:57:00,
2013-07-28 13:02:00,85.6,72.0,29.95,WSW,238,2.0,10.0,64,0.00,,-RA,0.00,VWS V14.01,2013-07-28 17:02:00,
2013-07-28 13:07:00,85.5,71.9,29.95,WSW,245,4.0,13.0,64,0.00,,-RA,0.00,VWS V14.01,2013-07-28 17:07:00,
2013-07-28 13:12:00,85.8,73.6,29.95,West,277,4.0,13.0,67,0.00,,-RA,0.00,VWS V14.01,2013-07-28 17:12:00,
2013-07-28 13:17:00,85.9,72.8,29.95,South,187,10.0,13.0,65,0.00,,-RA,0.00,VWS V14.01,2013-07-28 17:17:00,
2013-07-28 13:22:00,85.6,72.5,29.95,WNW,291,2.0,13.0,65,0.00,,-RA,0.00,VWS V14.01,2013-07-28 17:22:00,
2013-07-28 13:27:00,86.0,72.4,29.95,West,259,5.0,13.0,64,0.00,,-RA,0.00,VWS V14.01,2013-07-28 17:27:00,
2013-07-28 13:32:00,86.4,73.2,29.95,West,275,1.0,13.0,65,0.00,,-RA,0.00,VWS V14.01,2013-07-28 17:32:00,
2013-07-28 13:37:00,86.5,71.9,29.95,West,267,2.0,13.0,62,0.00,,-RA,0.00,VWS V14.01,2013-07-28 17:37:00,
2013-07-28 13:42:00,86.4,72.3,29.95,SW,234,3.0,13.0,63,0.00,,-RA,0.00,VWS V14.01,2013-07-28 17:42:00,
2013-07-28 13:47:00,86.4,72.3,29.95,WSW,258,10.0,13.0,63,0.00,,-RA,0.00,VWS V14.01,2013-07-28 17:47:00,
2013-07-28 13:52:00,86.6,72.0,29.95,West,268,7.0,13.0,62,0.00,,-RA,0.00,VWS V14.01,2013-07-28 17:52:00,
2013-07-28 13:57:00,86.8,73.6,29.95,West,259,5.0,13.0,65,0.00,,-RA,0.00,VWS V14.01,2013-07-28 17:57:00,
2013-07-28 14:02:00,86.8,73.2,29.95,WSW,248,1.0,7.0,64,0.00,,-RA,0.00,VWS V14.01,2013-07-28 18:02:00,
2013-07-28 14:07:00,86.9,73.3,29.95,WSW,246,6.0,10.0,64,0.00,,-RA,0.00,VWS V14.01,2013-07-28 18:07:00,
2013-07-28 14:12:00,86.6,73.0,29.95,West,281,5.0,11.0,64,0.00,,-RA,0.00,VWS V14.01,2013-07-28 18:12:00,
2013-07-28 14:17:00,86.9,73.7,29.95,West,269,0.0,11.0,65,0.00,,-RA,0.00,VWS V14.01,2013-07-28 18:17:00,
2013-07-28 14:22:00,87.1,73.4,29.95,West,263,3.0,11.0,64,0.00,,-RA,0.00,VWS V14.01,2013-07-28 18:22:00,
2013-07-28 14:27:00,87.2,73.6,29.95,West,259,6.0,11.0,64,0.00,,-RA,0.00,VWS V14.01,2013-07-28 18:27:00,
2013-07-28 14:32:00,87.1,73.9,29.95,SW,236,4.0,11.0,65,0.00,,-RA,0.00,VWS V14.01,2013-07-28 18:32:00,
2013-07-28 14:37:00,87.1,73.4,29.94,SW,227,1.0,11.0,64,0.00,,-RA,0.00,VWS V14.01,2013-07-28 18:37:00,
2013-07-28 14:42:00,87.4,73.3,29.94,WSW,242,0.0,11.0,63,0.00,,-RA,0.00,VWS V14.01,2013-07-28 18:42:00,
2013-07-28 14:47:00,87.4,73.3,29.94,West,273,1.0,11.0,63,0.00,,-RA,0.00,VWS V14.01,2013-07-28 18:47:00,
2013-07-28 14:52:00,87.1,73.4,29.94,West,261,5.0,11.0,64,0.00,,-RA,0.00,VWS V14.01,2013-07-28 18:52:00,
2013-07-28 14:57:00,87.4,73.7,29.94,WNW,288,2.0,11.0,64,0.00,,-RA,0.00,VWS V14.01,2013-07-28 18:57:00,
2013-07-28 15:02:00,87.2,72.6,29.94,SW,217,0.0,6.0,62,0.00,,-RA,0.00,VWS V14.01,2013-07-28 19:02:00,
2013-07-28 15:07:00,87.7,73.1,29.93,SSW,201,7.0,7.0,62,0.00,,-RA,0.00,VWS V14.01,2013-07-28 19:07:00,
2013-07-28 15:12:00,87.9,73.3,29.93,West,272,3.0,7.0,62,0.00,,-RA,0.00,VWS V14.01,2013-07-28 19:12:00,
2013-07-28 15:17:00,87.8,73.2,29.93,WSW,255,4.0,8.0,62,0.00,,-RA,0.00,VWS V14.01,2013-07-28 19:17:00,
2013-07-28 15:22:00,87.9,73.7,29.93,SSE,161,0.0,8.0,63,0.00,,-RA,0.00,VWS V14.01,2013-07-28 19:22:00,
2013-07-28 15:27:00,88.1,73.9,29.93,SW,228,2.0,8.0,63,0.00,,-RA,0.00,VWS V14.01,2013-07-28 19:27:00,
2013-07-28 15:32:00,88.6,73.9,29.93,WNW,287,3.0,9.0,62,0.00,,-RA,0.00,VWS V14.01,2013-07-28 19:32:00,
2013-07-28 15:37:00,88.7,72.5,29.93,South,190,6.0,12.0,59,0.00,,-RA,0.00,VWS V14.01,2013-07-28 19:37:00,
2013-07-28 15:42:00,88.6,72.9,29.93,WSW,242,7.0,12.0,60,0.00,,-RA,0.00,VWS V14.01,2013-07-28 19:42:00,
2013-07-28 15:47:00,88.8,73.1,29.92,West,259,1.0,12.0,60,0.00,,-RA,0.00,VWS V14.01,2013-07-28 19:47:00,
2013-07-28 15:52:00,89.0,72.3,29.92,SW,221,7.0,12.0,58,0.00,,-RA,0.00,VWS V14.01,2013-07-28 19:52:00,
2013-07-28 15:57:00,88.2,72.1,29.92,WNW,302,2.0,12.0,59,0.00,,-RA,0.00,VWS V14.01,2013-07-28 19:57:00,
2013-07-28 16:02:00,87.7,72.6,29.92,WSW,246,5.0,6.0,61,0.00,,-RA,0.00,VWS V14.01,2013-07-28 20:02:00,
2013-07-28 16:07:00,88.0,72.9,29.92,West,269,1.0,6.0,61,0.00,,-RA,0.00,VWS V14.01,2013-07-28 20:07:00,
2013-07-28 16:12:00,88.4,73.2,29.92,West,277,4.0,12.0,61,0.00,,-RA,0.00,VWS V14.01,2013-07-28 20:12:00,
2013-07-28 16:17:00,88.7,73.5,29.92,West,271,5.0,12.0,61,0.00,,-RA,0.00,VWS V14.01,2013-07-28 20:17:00,
2013-07-28 16:22:00,88.7,72.0,29.92,SSW,205,5.0,12.0,58,0.00,,-RA,0.00,VWS V14.01,2013-07-28 20:22:00,
2013-07-28 16:27:00,88.3,72.7,29.92,WSW,243,1.0,12.0,60,0.00,,-RA,0.00,VWS V14.01,2013-07-28 20:27:00,
2013-07-28 16:32:00,88.5,73.3,29.92,West,269,0.0,12.0,61,0.00,,-RA,0.00,VWS V14.01,2013-07-28 20:32:00,
2013-07-28 16:37:00,88.9,72.7,29.92,West,259,1.0,12.0,59,0.00,,-RA,0.00,VWS V14.01,2013-07-28 20:37:00,
2013-07-28 16:42:00,88.6,72.9,29.92,SW,231,4.0,12.0,60,0.00,,-RA,0.00,VWS V14.01,2013-07-28 20:42:00,
2013-07-28 16:47:00,88.5,73.8,29.92,WSW,253,3.0,12.0,62,0.00,,-RA,0.00,VWS V14.01,2013-07-28 20:47:00,
2013-07-28 16:52:00,88.9,73.7,29.92,West,260,0.0,12.0,61,0.00,,-RA,0.00,VWS V14.01,2013-07-28 20:52:00,
2013-07-28 16:57:00,89.2,74.0,29.92,SW,228,0.0,12.0,61,0.00,,-RA,0.00,VWS V14.01,2013-07-28 20:57:00,
2013-07-28 17:02:00,89.0,73.3,29.92,SW,225,2.0,6.0,60,0.00,,-RA,0.00,VWS V14.01,2013-07-28 21:02:00,
2013-07-28 17:07:00,88.9,74.2,29.91,SW,236,0.0,6.0,62,0.00,,-RA,0.00,VWS V14.01,2013-07-28 21:07:00,
2013-07-28 17:12:00,89.0,73.8,29.92,SW,235,3.0,7.0,61,0.00,,-RA,0.00,VWS V14.01,2013-07-28 21:12:00,
2013-07-28 17:17:00,88.4,74.2,29.92,SW,234,1.0,7.0,63,0.00,,-RA,0.00,VWS V14.01,2013-07-28 21:17:00,
2013-07-28 17:22:00,88.4,73.7,29.92,SW,220,3.0,8.0,62,0.00,,-RA,0.00,VWS V14.01,2013-07-28 21:22:00,
2013-07-28 17:27:00,88.3,73.6,29.92,SSW,207,4.0,8.0,62,0.00,,-RA,0.00,VWS V14.01,2013-07-28 21:27:00,
2013-07-28 17:32:00,88.4,75.1,29.91,WSW,244,2.0,8.0,65,0.00,,-RA,0.00,VWS V14.01,2013-07-28 21:32:00,
2013-07-28 17:37:00,88.8,74.6,29.91,West,261,5.0,8.0,63,0.00,,-RA,0.00,VWS V14.01,2013-07-28 21:37:00,
2013-07-28 17:42:00,88.9,73.2,29.91,West,279,1.0,9.0,60,0.00,,-RA,0.00,VWS V14.01,2013-07-28 21:42:00,
2013-07-28 17:47:00,88.9,73.2,29.92,WSW,247,1.0,10.0,60,0.00,,-RA,0.00,VWS V14.01,2013-07-28 21:47:00,
2013-07-28 17:52:00,88.9,74.2,29.92,SW,220,4.0,10.0,62,0.00,,-RA,0.00,VWS V14.01,2013-07-28 21:52:00,
2013-07-28 17:57:00,88.7,74.0,29.92,SW,215,0.0,10.0,62,0.00,,-RA,0.00,VWS V14.01,2013-07-28 21:57:00,
2013-07-28 18:02:00,88.7,74.5,29.92,SSW,198,0.0,4.0,63,0.00,,-RA,0.00,VWS V14.01,2013-07-28 22:02:00,
2013-07-28 18:07:00,88.5,73.8,29.92,SW,215,2.0,8.0,62,0.00,,-RA,0.00,VWS V14.01,2013-07-28 22:07:00,
2013-07-28 18:12:00,88.0,74.3,29.92,WSW,237,0.0,8.0,64,0.00,,-RA,0.00,VWS V14.01,2013-07-28 22:12:00,
2013-07-28 18:17:00,87.1,73.9,29.92,SW,218,1.0,8.0,65,0.00,,-RA,0.00,VWS V14.01,2013-07-28 22:17:00,
2013-07-28 18:22:00,86.8,74.1,29.92,SSW,211,3.0,8.0,66,0.00,,-RA,0.00,VWS V14.01,2013-07-28 22:22:00,
2013-07-28 18:27:00,86.6,74.3,29.92,SW,217,0.0,8.0,67,0.00,,-RA,0.00,VWS V14.01,2013-07-28 22:27:00,
2013-07-28 18:32:00,86.8,74.5,29.92,SW,217,0.0,8.0,67,0.00,,-RA,0.00,VWS V14.01,2013-07-28 22:32:00,
2013-07-28 18:37:00,87.2,75.4,29.92,SSW,193,3.0,8.0,68,0.00,,-RA,0.00,VWS V14.01,2013-07-28 22:37:00,
2013-07-28 18:42:00,86.9,74.6,29.92,SW,220,0.0,8.0,67,0.00,,-RA,0.00,VWS V14.01,2013-07-28 22:42:00,
2013-07-28 18:47:00,86.9,75.1,29.92,SW,220,0.0,8.0,68,0.00,,-RA,0.00,VWS V14.01,2013-07-28 22:47:00,
2013-07-28 18:52:00,86.9,75.1,29.92,SW,220,0.0,8.0,68,0.00,,-RA,0.00,VWS V14.01,2013-07-28 22:52:00,
2013-07-28 18:57:00,86.7,74.4,29.92,South,182,1.0,8.0,67,0.00,,-RA,0.00,VWS V14.01,2013-07-28 22:57:00,
2013-07-28 19:02:00,86.7,75.3,29.92,SW,235,0.0,0.0,69,0.00,,-RA,0.00,VWS V14.01,2013-07-28 23:02:00,
2013-07-28 19:07:00,86.7,75.3,29.92,SW,234,1.0,2.0,69,0.00,,-RA,0.00,VWS V14.01,2013-07-28 23:07:00,
2013-07-28 19:12:00,86.5,75.6,29.93,SW,234,0.0,3.0,70,0.00,,-RA,0.00,VWS V14.01,2013-07-28 23:12:00,
2013-07-28 19:17:00,86.5,75.6,29.93,SW,234,0.0,3.0,70,0.00,,-RA,0.00,VWS V14.01,2013-07-28 23:17:00,
2013-07-28 19:22:00,86.2,75.3,29.93,SW,234,0.0,3.0,70,0.00,,-RA,0.00,VWS V14.01,2013-07-28 23:22:00,
2013-07-28 19:27:00,85.5,75.0,29.93,SW,234,0.0,3.0,71,0.00,,-RA,0.00,VWS V14.01,2013-07-28 23:27:00,
2013-07-28 19:32:00,85.2,75.2,29.94,SW,234,0.0,3.0,72,0.00,,-RA,0.00,VWS V14.01,2013-07-28 23:32:00,
2013-07-28 19:37:00,85.0,75.0,29.94,SW,234,0.0,3.0,72,0.00,,-RA,0.00,VWS V14.01,2013-07-28 23:37:00,
2013-07-28 19:42:00,84.6,74.6,29.94,SW,234,0.0,3.0,72,0.00,,-RA,0.00,VWS V14.01,2013-07-28 23:42:00,
2013-07-28 19:47:00,84.4,74.8,29.95,SW,234,0.0,3.0,73,0.00,,-RA,0.00,VWS V14.01,2013-07-28 23:47:00,
2013-07-28 19:52:00,84.3,74.7,29.95,SW,234,0.0,3.0,73,0.00,,-RA,0.00,VWS V14.01,2013-07-28 23:52:00,
2013-07-28 19:57:00,84.3,74.7,29.95,SW,234,0.0,3.0,73,0.00,,-RA,0.00,VWS V14.01,2013-07-28 23:57:00,
2013-07-28 20:02:00,84.1,74.5,29.95,SW,234,0.0,0.0,73,0.00,,-RA,0.00,VWS V14.01,2013-07-29 00:02:00,
2013-07-28 20:07:00,83.6,74.4,29.95,SW,234,0.0,0.0,74,0.00,,-RA,0.00,VWS V14.01,2013-07-29 00:07:00,
2013-07-28 20:12:00,83.3,74.6,29.95,SW,234,0.0,0.0,75,0.00,,-RA,0.00,VWS V14.01,2013-07-29 00:12:00,
2013-07-28 20:17:00,83.1,74.8,29.95,SW,234,0.0,0.0,76,0.00,,-RA,0.00,VWS V14.01,2013-07-29 00:17:00,
2013-07-28 20:22:00,82.9,74.2,29.96,SW,234,0.0,1.0,75,0.00,,-RA,0.00,VWS V14.01,2013-07-29 00:22:00,
2013-07-28 20:27:00,82.7,74.0,29.96,SW,234,0.0,1.0,75,0.00,,-RA,0.00,VWS V14.01,2013-07-29 00:27:00,
2013-07-28 20:32:00,82.5,74.2,29.96,SW,234,0.0,1.0,76,0.00,,-RA,0.00,VWS V14.01,2013-07-29 00:32:00,
2013-07-28 20:37:00,82.2,73.9,29.97,SW,234,0.0,3.0,76,0.00,,-RA,0.00,VWS V14.01,2013-07-29 00:37:00,
2013-07-28 20:42:00,81.9,74.0,29.97,SW,234,0.0,3.0,77,0.00,,-RA,0.00,VWS V14.01,2013-07-29 00:42:00,
2013-07-28 20:47:00,81.5,73.2,29.97,SW,234,0.0,3.0,76,0.00,,-RA,0.00,VWS V14.01,2013-07-29 00:47:00,
2013-07-28 20:52:00,81.4,73.5,29.97,SW,234,0.0,3.0,77,0.00,,-RA,0.00,VWS V14.01,2013-07-29 00:52:00,
2013-07-28 20:57:00,81.3,73.4,29.97,SW,234,0.0,3.0,77,0.00,,-RA,0.00,VWS V14.01,2013-07-29 00:57:00,
2013-07-28 21:02:00,81.1,73.2,29.97,SW,234,0.0,1.0,77,0.00,,-RA,0.00,VWS V14.01,2013-07-29 01:02:00,
2013-07-28 21:07:00,80.9,73.4,29.97,SW,234,0.0,3.0,78,0.00,,-RA,0.00,VWS V14.01,2013-07-29 01:07:00,
2013-07-28 21:12:00,80.8,73.7,29.97,SW,234,0.0,3.0,79,0.00,,-RA,0.00,VWS V14.01,2013-07-29 01:12:00,
2013-07-28 21:17:00,80.6,73.5,29.97,SW,234,0.0,3.0,79,0.00,,-RA,0.00,VWS V14.01,2013-07-29 01:17:00,
2013-07-28 21:22:00,80.5,73.4,29.97,SW,234,0.0,3.0,79,0.00,,-RA,0.00,VWS V14.01,2013-07-29 01:22:00,
2013-07-28 21:27:00,80.4,73.3,29.97,SW,234,0.0,3.0,79,0.00,,-RA,0.00,VWS V14.01,2013-07-29 01:27:00,
2013-07-28 21:32:00,80.5,73.4,29.97,SW,234,0.0,3.0,79,0.00,,-RA,0.00,VWS V14.01,2013-07-29 01:32:00,
2013-07-28 21:37:00,80.5,74.1,29.97,SW,234,0.0,3.0,81,0.00,,-RA,0.00,VWS V14.01,2013-07-29 01:37:00,
2013-07-28 21:42:00,80.1,73.8,29.98,SW,234,0.0,3.0,81,0.00,,-RA,0.00,VWS V14.01,2013-07-29 01:42:00,
2013-07-28 21:47:00,79.5,73.9,29.98,SW,234,0.0,3.0,83,0.00,,-RA,0.00,VWS V14.01,2013-07-29 01:47:00,
2013-07-28 21:52:00,79.2,73.9,29.98,SW,234,0.0,3.0,84,0.00,,-RA,0.00,VWS V14.01,2013-07-29 01:52:00,
2013-07-28 21:57:00,78.9,73.7,29.98,SW,234,0.0,3.0,84,0.00,,-RA,0.00,VWS V14.01,2013-07-29 01:57:00,
2013-07-28 22:02:00,78.7,73.8,29.98,SW,234,0.0,0.0,85,0.00,,-RA,0.00,VWS V14.01,2013-07-29 02:02:00,
2013-07-28 22:07:00,78.7,73.8,29.98,SW,234,0.0,1.0,85,0.00,,-RA,0.00,VWS V14.01,2013-07-29 02:07:00,
2013-07-28 22:12:00,78.5,73.6,29.98,SW,234,0.0,1.0,85,0.00,,-RA,0.00,VWS V14.01,2013-07-29 02:12:00,
2013-07-28 22:17:00,78.5,73.6,29.98,SW,234,0.0,1.0,85,0.00,,-RA,0.00,VWS V14.01,2013-07-29 02:17:00,
2013-07-28 22:22:00,78.4,73.5,29.98,South,189,0.0,3.0,85,0.00,,-RA,0.00,VWS V14.01,2013-07-29 02:22:00,
2013-07-28 22:27:00,78.5,73.6,29.98,South,189,0.0,3.0,85,0.00,,-RA,0.00,VWS V14.01,2013-07-29 02:27:00,
2013-07-28 22:32:00,78.4,73.5,29.98,South,189,0.0,3.0,85,0.00,,-RA,0.00,VWS V14.01,2013-07-29 02:32:00,
2013-07-28 22:37:00,78.2,73.7,29.98,South,189,0.0,3.0,86,0.00,,-RA,0.00,VWS V14.01,2013-07-29 02:37:00,
2013-07-28 22:42:00,78.0,73.5,29.98,South,189,0.0,3.0,86,0.00,,-RA,0.00,VWS V14.01,2013-07-29 02:42:00,
2013-07-28 22:47:00,78.0,73.1,29.98,South,189,0.0,3.0,85,0.00,,-RA,0.00,VWS V14.01,2013-07-29 02:47:00,
2013-07-28 22:52:00,77.9,73.4,29.98,South,189,0.0,3.0,86,0.00,,-RA,0.00,VWS V14.01,2013-07-29 02:52:00,
2013-07-28 22:57:00,77.8,73.3,29.98,South,189,0.0,3.0,86,0.00,,-RA,0.00,VWS V14.01,2013-07-29 02:57:00,
2013-07-28 23:02:00,77.6,73.1,29.98,South,189,0.0,0.0,86,0.00,,-RA,0.00,VWS V14.01,2013-07-29 03:02:00,
2013-07-28 23:07:00,77.6,73.1,29.98,South,189,0.0,1.0,86,0.00,,-RA,0.00,VWS V14.01,2013-07-29 03:07:00,
2013-07-28 23:12:00,77.5,73.0,29.98,South,189,0.0,1.0,86,0.00,,-RA,0.00,VWS V14.01,2013-07-29 03:12:00,
2013-07-28 23:17:00,77.5,72.6,29.98,South,189,0.0,3.0,85,0.00,,-RA,0.00,VWS V14.01,2013-07-29 03:17:00,
2013-07-28 23:22:00,77.7,72.8,29.98,South,189,1.0,4.0,85,0.00,,-RA,0.00,VWS V14.01,2013-07-29 03:22:00,
2013-07-28 23:27:00,77.9,72.7,29.98,South,189,0.0,5.0,84,0.00,,-RA,0.00,VWS V14.01,2013-07-29 03:27:00,
2013-07-28 23:32:00,77.8,72.9,29.98,South,189,0.0,5.0,85,0.00,,-RA,0.00,VWS V14.01,2013-07-29 03:32:00,
2013-07-28 23:37:00,77.4,72.9,29.98,South,190,0.0,5.0,86,0.00,,-RA,0.00,VWS V14.01,2013-07-29 03:37:00,
2013-07-28 23:42:00,77.0,72.8,29.98,South,190,0.0,5.0,87,0.00,,-RA,0.00,VWS V14.01,2013-07-29 03:42:00,
2013-07-28 23:47:00,76.7,72.9,29.98,South,190,0.0,5.0,88,0.00,,-RA,0.00,VWS V14.01,2013-07-29 03:47:00,
2013-07-28 23:52:00,76.6,72.8,29.99,South,190,0.0,5.0,88,0.00,,-RA,0.00,VWS V14.01,2013-07-29 03:52:00,
2013-07-28 23:57:00,76.7,72.5,29.98,South,190,2.0,5.0,87,0.00,,-RA,0.00,VWS V14.01,2013-07-29 03:57:00,